Weather in Samara

Russia / Jewish Autonomous Oblast     47°49′41″N   131°13′39″E
temp.,
°C
wind,
m/s
gust,
m/s
humid.,
%
clouds,
%
prec.,
mm/h
press.,
hPa
HPBL,
m
24 september, fri
fri2401:00+8wnw11630 0.0 102510
04:00+7wnw11661 0.0 102610
07:00+6w11700 0.0 102810
10:00+12sw23536 0.0 1028320
13:00+17ssw3342100 0.0 1027910
16:00+18sw2339100 0.0 10261140
19:00+13ssw2256100 0.0 102711
22:00+11ssw226499 0.0 102710
25 september, sat
sat2501:00+9sw226999 0.0 102710
04:00+8sw0077100 0.0 102710
07:00+8nne1177100 0.0 102710
10:00+12se1262100 0.0 1027229
13:00+17se2249100 0.0 1026742
16:00+19se1142100 0.0 10251037
19:00+14ese115999 0.0 102511
22:00+11nne11685 0.0 102610
26 september, sun
sun2601:00+10nne11745 0.0 102510
04:00+9nnw22785 0.0 102510
07:00+8nw11815 0.0 102510
10:00+14ne006120 0.0 1025260
13:00+19sse11495 0.0 1023804
16:00+21s11445 0.0 10211066
19:00+16sse226266 0.0 102011
22:00+14sse117097 0.0 102011
27 september, mon
mon2701:00+12se227955 0.0 101912
04:00+11e2288100 0.0 101817
07:00+12ene2289100 0.0 101764
10:00+15ese3479100 0.0 1015269
13:00+20s4662100 0.0 1013938
16:00+17sw4991100 2.1 1012435
19:00+17sw489496 2.2 1012337
22:00+16sw389732 2.3 1013263
28 september, tue
tue2801:00+14w33940 0.1 101437
04:00+13wnw22890 0.1 101511
07:00+11nnw22900 0.0 101511
10:00+16e11740 0.0 1015253
13:00+21s46597 0.0 10141409
16:00+21ssw5649100 0.0 10121519
19:00+17se2263100 0.0 101117
22:00+16se51287100 0.0 1009321